OH85R EFHK-EFHK

Flight info

Callsign OH85R
Flight time 0h 43m
Altitude 1000
Route LILJA HAGIP
Aircraft CC19/L-VG/C

Departure

Time 2026-04-24 19:16
Airport Helsinki Vantaa Airport (EFHK)

Arrival

Time 2026-04-24 20:00
Airport Helsinki Vantaa Airport (EFHK)
Time Latitude Longitude Altitude Speed Heading
2026-04-24 19:00 60.30821 24.98029 155 ft 0 kts 221°
2026-04-24 19:08 60.30835 24.97894 156 ft 14 kts 329°
2026-04-24 19:08 60.30869 24.97899 156 ft 4 kts 53°
2026-04-24 19:09 60.30906 24.98040 156 ft 20 kts 62°
2026-04-24 19:09 60.30998 24.98189 156 ft 18 kts 336°
2026-04-24 19:09 60.31104 24.98084 156 ft 16 kts 333°
2026-04-24 19:09 60.31249 24.97934 157 ft 29 kts 329°
2026-04-24 19:10 60.31437 24.97744 158 ft 31 kts 334°
2026-04-24 19:10 60.31635 24.97539 158 ft 33 kts 333°
2026-04-24 19:10 60.31832 24.97335 159 ft 29 kts 333°
2026-04-24 19:10 60.32001 24.97161 160 ft 25 kts 333°
2026-04-24 19:11 60.32134 24.97028 160 ft 18 kts 334°
2026-04-24 19:11 60.32228 24.96929 161 ft 6 kts 332°
2026-04-24 19:11 60.32259 24.96895 161 ft 3 kts 333°
2026-04-24 19:11 60.32296 24.96848 161 ft 7 kts 300°
2026-04-24 19:12 60.32286 24.96764 161 ft 9 kts 233°
2026-04-24 19:12 60.32238 24.96652 162 ft 12 kts 227°
2026-04-24 19:12 60.32174 24.96507 162 ft 15 kts 227°
2026-04-24 19:12 60.32110 24.96370 162 ft 12 kts 228°
2026-04-24 19:13 60.32076 24.96300 162 ft 10 kts 225°
2026-04-24 19:13 60.32019 24.96173 162 ft 7 kts 230°
2026-04-24 19:13 60.31992 24.96109 162 ft 5 kts 228°
2026-04-24 19:13 60.31963 24.96040 162 ft 12 kts 241°
2026-04-24 19:14 60.32003 24.95886 161 ft 12 kts 319°
2026-04-24 19:14 60.32065 24.95791 161 ft 11 kts 328°
2026-04-24 19:14 60.32106 24.95786 161 ft 0 kts 46°
2026-04-24 19:15 60.32184 24.95964 162 ft 42 kts 47°
2026-04-24 19:15 60.32475 24.96634 226 ft 76 kts 41°
2026-04-24 19:15 60.32865 24.97473 360 ft 92 kts 44°
2026-04-24 19:15 60.33366 24.98560 391 ft 100 kts 43°
2026-04-24 19:16 60.34163 25.00156 994 ft 88 kts 38°
2026-04-24 19:16 60.34369 25.01386 994 ft 109 kts 103°
2026-04-24 19:16 60.33899 25.02687 1015 ft 120 kts 126°
2026-04-24 19:17 60.33371 25.04044 1011 ft 125 kts 126°
2026-04-24 19:17 60.32800 25.05412 1006 ft 129 kts 128°
2026-04-24 19:17 60.32371 25.06974 1001 ft 128 kts 99°
2026-04-24 19:17 60.32337 25.08738 1009 ft 125 kts 86°
2026-04-24 19:18 60.32327 25.10507 1008 ft 127 kts 86°
2026-04-24 19:18 60.32336 25.12289 1010 ft 127 kts 86°
2026-04-24 19:18 60.32344 25.14070 1005 ft 127 kts 85°
2026-04-24 19:18 60.32358 25.15862 1009 ft 128 kts 85°
2026-04-24 19:19 60.32369 25.17617 1006 ft 126 kts 85°
2026-04-24 19:19 60.32385 25.19399 1001 ft 127 kts 85°
2026-04-24 19:19 60.32385 25.21179 999 ft 127 kts 91°
2026-04-24 19:19 60.31904 25.22628 987 ft 133 kts 153°
2026-04-24 19:20 60.31006 25.22693 996 ft 131 kts 191°
2026-04-24 19:20 60.30095 25.22656 1005 ft 131 kts 179°
2026-04-24 19:20 60.29179 25.22690 1000 ft 133 kts 180°
2026-04-24 19:20 60.28254 25.22708 1004 ft 133 kts 180°
2026-04-24 19:21 60.27326 25.22729 1004 ft 134 kts 180°
2026-04-24 19:21 60.26398 25.22756 1006 ft 134 kts 180°
2026-04-24 19:21 60.25469 25.22781 1007 ft 133 kts 180°
2026-04-24 19:21 60.24540 25.22802 1006 ft 134 kts 180°
2026-04-24 19:22 60.23924 25.22814 1001 ft 134 kts 180°
2026-04-24 19:22 60.22687 25.22850 1007 ft 134 kts 180°
2026-04-24 19:22 60.21760 25.22853 994 ft 132 kts 189°
2026-04-24 19:22 60.20943 25.22099 990 ft 129 kts 212°
2026-04-24 19:23 60.20138 25.21266 993 ft 131 kts 210°
2026-04-24 19:23 60.19322 25.20427 995 ft 132 kts 210°
2026-04-24 19:23 60.18507 25.19586 992 ft 131 kts 210°
2026-04-24 19:23 60.17701 25.18748 997 ft 131 kts 210°
2026-04-24 19:24 60.16889 25.17910 994 ft 131 kts 210°
2026-04-24 19:24 60.16075 25.17081 996 ft 131 kts 210°
2026-04-24 19:24 60.15277 25.16255 991 ft 131 kts 210°
2026-04-24 19:24 60.14469 25.15430 995 ft 130 kts 210°
2026-04-24 19:25 60.13674 25.14627 987 ft 120 kts 210°
2026-04-24 19:25 60.13140 25.13641 972 ft 97 kts 259°
2026-04-24 19:25 60.12952 25.12429 988 ft 88 kts 252°
2026-04-24 19:25 60.12681 25.11301 851 ft 96 kts 249°
2026-04-24 19:26 60.12401 25.10021 598 ft 102 kts 253°
2026-04-24 19:26 60.12278 25.08641 359 ft 101 kts 271°
2026-04-24 19:26 60.12242 25.07230 127 ft 101 kts 269°
2026-04-24 19:26 60.12203 25.05928 90 ft 86 kts 270°
2026-04-24 19:27 60.12164 25.04856 47 ft 78 kts 270°
2026-04-24 19:27 60.12137 25.04121 96 ft 83 kts 271°
2026-04-24 19:27 60.12085 25.02484 111 ft 93 kts 269°
2026-04-24 19:27 60.12048 25.01171 113 ft 95 kts 270°
2026-04-24 19:28 60.12021 25.00262 111 ft 98 kts 270°
2026-04-24 19:28 60.11973 24.98610 89 ft 82 kts 270°
2026-04-24 19:28 60.11862 24.97500 90 ft 84 kts 239°
2026-04-24 19:28 60.11524 24.96567 83 ft 75 kts 242°
2026-04-24 19:29 60.10960 24.94940 5 ft 71 kts 241°
2026-04-24 19:29 60.10749 24.94225 3 ft 46 kts 256°
2026-04-24 19:29 60.10717 24.93836 3 ft 19 kts 283°
2026-04-24 19:30 60.10754 24.93716 4 ft 12 kts 321°
2026-04-24 19:30 60.10809 24.93642 4 ft 10 kts 346°
2026-04-24 19:30 60.10871 24.93605 4 ft 4 kts 341°
2026-04-24 19:30 60.10892 24.93585 4 ft 3 kts 332°
2026-04-24 19:31 60.10911 24.93548 3 ft 10 kts 252°
2026-04-24 19:31 60.10773 24.93331 3 ft 37 kts 213°
2026-04-24 19:31 60.10607 24.93259 3 ft 51 kts 172°
2026-04-24 19:31 60.09961 24.93555 154 ft 80 kts 165°
2026-04-24 19:32 60.09579 24.93778 259 ft 90 kts 160°
2026-04-24 19:32 60.08992 24.94177 581 ft 80 kts 168°
2026-04-24 19:32 60.08719 24.93405 932 ft 66 kts 322°
2026-04-24 19:32 60.09217 24.93365 1073 ft 82 kts 359°
2026-04-24 19:33 60.09795 24.93272 1169 ft 78 kts 346°
2026-04-24 19:33 60.10335 24.93079 1007 ft 77 kts 349°
2026-04-24 19:33 60.10682 24.92961 994 ft 78 kts 349°
2026-04-24 19:33 60.11236 24.92787 1012 ft 82 kts 349°
2026-04-24 19:34 60.11814 24.92612 1009 ft 86 kts 349°
2026-04-24 19:34 60.12416 24.92433 1017 ft 93 kts 349°
2026-04-24 19:34 60.13355 24.92154 1015 ft 110 kts 350°
2026-04-24 19:34 60.13878 24.92004 1020 ft 114 kts 350°
2026-04-24 19:35 60.14672 24.91773 1014 ft 117 kts 351°
2026-04-24 19:35 60.15475 24.91543 1006 ft 116 kts 350°
2026-04-24 19:35 60.16274 24.91310 1003 ft 116 kts 350°
2026-04-24 19:35 60.17061 24.91081 1005 ft 116 kts 350°
2026-04-24 19:36 60.17861 24.90849 1004 ft 116 kts 351°
2026-04-24 19:36 60.18660 24.90615 1002 ft 116 kts 350°
2026-04-24 19:36 60.19461 24.90383 1001 ft 116 kts 350°
2026-04-24 19:36 60.20171 24.90177 978 ft 90 kts 350°
2026-04-24 19:37 60.20732 24.90015 910 ft 78 kts 350°
2026-04-24 19:37 60.21275 24.90145 868 ft 76 kts 10°
2026-04-24 19:37 60.21755 24.90312 950 ft 67 kts
2026-04-24 19:37 60.22236 24.90420 1001 ft 76 kts 357°
2026-04-24 19:38 60.22764 24.90188 1005 ft 79 kts 337°
2026-04-24 19:38 60.23283 24.89844 1009 ft 78 kts 340°
2026-04-24 19:38 60.23803 24.89500 1006 ft 79 kts 340°
2026-04-24 19:38 60.24325 24.89158 1006 ft 78 kts 339°
2026-04-24 19:39 60.24842 24.88820 999 ft 78 kts 340°
2026-04-24 19:39 60.25360 24.88478 1001 ft 79 kts 340°
2026-04-24 19:39 60.25893 24.88127 949 ft 85 kts 340°
2026-04-24 19:39 60.26487 24.87725 843 ft 94 kts 340°
2026-04-24 19:40 60.27094 24.87311 805 ft 87 kts 339°
2026-04-24 19:40 60.27648 24.86925 799 ft 84 kts 340°
2026-04-24 19:40 60.28207 24.86682 779 ft 83 kts 11°
2026-04-24 19:40 60.28738 24.86848 791 ft 80 kts 334°
2026-04-24 19:41 60.29267 24.86866 792 ft 81 kts 25°
2026-04-24 19:41 60.29775 24.87455 686 ft 86 kts 26°
2026-04-24 19:41 60.30229 24.88118 574 ft 75 kts 37°
2026-04-24 19:41 60.30588 24.88847 485 ft 72 kts 44°
2026-04-24 19:42 60.30926 24.89601 370 ft 76 kts 41°
2026-04-24 19:42 60.31318 24.90442 184 ft 82 kts 42°
2026-04-24 19:42 60.31652 24.91178 150 ft 63 kts 48°
2026-04-24 19:42 60.31957 24.91847 294 ft 67 kts 42°
2026-04-24 19:43 60.32295 24.92552 469 ft 77 kts 39°
2026-04-24 19:43 60.32798 24.93041 616 ft 85 kts
2026-04-24 19:43 60.33287 24.92447 777 ft 88 kts 308°
2026-04-24 19:43 60.33752 24.91585 809 ft 96 kts 310°
2026-04-24 19:44 60.33763 24.90290 809 ft 104 kts 236°
2026-04-24 19:44 60.33260 24.89221 813 ft 106 kts 231°
2026-04-24 19:44 60.32765 24.88103 808 ft 107 kts 230°
2026-04-24 19:44 60.32269 24.87007 802 ft 102 kts 230°
2026-04-24 19:45 60.31804 24.85993 784 ft 96 kts 230°
2026-04-24 19:45 60.31350 24.85053 787 ft 93 kts 216°
2026-04-24 19:45 60.30761 24.85199 789 ft 90 kts 135°
2026-04-24 19:45 60.30285 24.86012 788 ft 89 kts 137°
2026-04-24 19:46 60.30144 24.87107 719 ft 91 kts 79°
2026-04-24 19:46 60.30356 24.88292 533 ft 84 kts 51°
2026-04-24 19:46 60.30707 24.89101 404 ft 74 kts 41°
2026-04-24 19:46 60.31051 24.89885 281 ft 73 kts 42°
2026-04-24 19:47 60.31390 24.90603 175 ft 66 kts 43°
2026-04-24 19:47 60.31679 24.91229 151 ft 54 kts 46°
2026-04-24 19:47 60.31972 24.91856 270 ft 67 kts 40°
2026-04-24 19:47 60.32376 24.92323 473 ft 71 kts 12°
2026-04-24 19:48 60.32875 24.92251 683 ft 71 kts 339°
2026-04-24 19:48 60.33272 24.91586 812 ft 85 kts 319°
2026-04-24 19:48 60.33660 24.89243 815 ft 113 kts 234°
2026-04-24 19:49 60.32651 24.87015 807 ft 103 kts 230°
2026-04-24 19:49 60.31689 24.85224 782 ft 93 kts 187°
2026-04-24 19:50 60.30681 24.88714 550 ft 113 kts 65°
2026-04-24 19:50 60.31087 24.89892 338 ft 95 kts 47°
2026-04-24 19:51 60.31818 24.91529 167 ft 70 kts 46°
2026-04-24 19:51 60.32179 24.92299 338 ft 79 kts 43°
2026-04-24 19:52 60.33008 24.91761 798 ft 69 kts 322°
2026-04-24 19:52 60.33376 24.91131 999 ft 74 kts 321°
2026-04-24 19:52 60.33795 24.90358 1013 ft 89 kts 307°
2026-04-24 19:52 60.33730 24.89125 1014 ft 102 kts 231°
2026-04-24 19:53 60.33234 24.88098 1002 ft 99 kts 231°
2026-04-24 19:53 60.32786 24.87121 1005 ft 94 kts 230°
2026-04-24 19:53 60.31908 24.85238 990 ft 90 kts 230°
2026-04-24 19:54 60.31479 24.84314 989 ft 90 kts 230°
2026-04-24 19:54 60.31054 24.83399 991 ft 87 kts 230°
2026-04-24 19:54 60.30657 24.82545 980 ft 81 kts 230°
2026-04-24 19:54 60.30261 24.81720 989 ft 84 kts 230°
2026-04-24 19:55 60.29995 24.81145 990 ft 85 kts 230°
2026-04-24 19:55 60.29451 24.79981 1006 ft 86 kts 230°
2026-04-24 19:55 60.29047 24.79115 1004 ft 87 kts 230°
2026-04-24 19:55 60.28630 24.78243 1009 ft 87 kts 220°
2026-04-24 19:56 60.28058 24.78320 988 ft 92 kts 133°
2026-04-24 19:56 60.28007 24.79460 988 ft 83 kts 66°
2026-04-24 19:56 60.28088 24.80567 991 ft 78 kts 81°
2026-04-24 19:56 60.28159 24.81632 983 ft 75 kts 66°
2026-04-24 19:57 60.28335 24.82569 988 ft 71 kts 73°
2026-04-24 19:57 60.28515 24.83483 986 ft 69 kts 59°
2026-04-24 19:57 60.28740 24.84357 1004 ft 74 kts 50°
2026-04-24 19:57 60.29039 24.85282 1018 ft 82 kts 50°
2026-04-24 19:58 60.29365 24.86170 943 ft 80 kts 50°
2026-04-24 19:58 60.29738 24.87014 811 ft 82 kts 45°
2026-04-24 19:58 60.30143 24.87898 613 ft 89 kts 41°
2026-04-24 19:58 60.30570 24.88798 467 ft 89 kts 46°
2026-04-24 19:59 60.30983 24.89694 342 ft 90 kts 45°
2026-04-24 19:59 60.31407 24.90628 216 ft 89 kts 46°
2026-04-24 19:59 60.31783 24.91456 166 ft 76 kts 46°
2026-04-24 19:59 60.32108 24.92181 161 ft 56 kts 47°
2026-04-24 20:00 60.32240 24.92700 167 ft 26 kts 76°
2026-04-24 20:00 60.32260 24.92877 168 ft 8 kts 76°
2026-04-24 20:00 60.32268 24.92944 168 ft 0 kts 76°
2026-04-24 20:00 60.32271 24.92965 168 ft 4 kts 74°
2026-04-24 20:01 60.32280 24.93041 169 ft 14 kts 79°
2026-04-24 20:01 60.32241 24.93211 169 ft 13 kts 107°
2026-04-24 20:01 60.32334 24.93460 171 ft 27 kts 48°
2026-04-24 20:01 60.32465 24.93758 174 ft 28 kts 50°
2026-04-24 20:02 60.32553 24.93950 176 ft 28 kts 49°
2026-04-24 20:02 60.32763 24.94417 180 ft 38 kts 45°
2026-04-24 20:02 60.32936 24.94802 183 ft 35 kts 49°
2026-04-24 20:02 60.33094 24.95145 180 ft 33 kts 49°
2026-04-24 20:03 60.33191 24.95536 174 ft 32 kts 122°
2026-04-24 20:03 60.33028 24.95823 171 ft 30 kts 150°
2026-04-24 20:03 60.32850 24.96035 168 ft 29 kts 152°
2026-04-24 20:03 60.32695 24.96208 165 ft 18 kts 149°
2026-04-24 20:04 60.32579 24.96322 163 ft 19 kts 151°
2026-04-24 20:04 60.32464 24.96475 160 ft 21 kts 148°
2026-04-24 20:04 60.32346 24.96627 162 ft 20 kts 149°
2026-04-24 20:04 60.32297 24.96680 162 ft 0 kts 154°
2026-04-24 20:05 60.32260 24.96717 162 ft 15 kts 157°
2026-04-24 20:05 60.32165 24.96825 161 ft 15 kts 147°
2026-04-24 20:05 60.32090 24.96923 161 ft 11 kts 150°
2026-04-24 20:05 60.32030 24.96988 160 ft 9 kts 155°
2026-04-24 20:06 60.31966 24.97052 160 ft 13 kts 160°
2026-04-24 20:06 60.31882 24.97126 160 ft 12 kts 153°
2026-04-24 20:06 60.31817 24.97203 160 ft 9 kts 150°
2026-04-24 20:06 60.31739 24.97283 159 ft 19 kts 153°
2026-04-24 20:07 60.31658 24.97365 159 ft 20 kts 151°
2026-04-24 20:07 60.31494 24.97546 158 ft 20 kts 152°
2026-04-24 20:07 60.31370 24.97663 157 ft 21 kts 164°
2026-04-24 20:07 60.31223 24.97679 157 ft 21 kts 155°
2026-04-24 20:08 60.31133 24.97774 157 ft 0 kts 123°
2026-04-24 20:08 60.31131 24.97777 157 ft 3 kts 142°
2026-04-24 20:08 60.31045 24.97806 156 ft 17 kts 158°
2026-04-24 20:08 60.30941 24.97911 156 ft 14 kts 154°
2026-04-24 20:09 60.30903 24.97863 156 ft 10 kts 246°
2026-04-24 20:09 60.30894 24.97824 156 ft 0 kts 244°